Location: Kuppenheim
(48.8299°N, 8.2568°E)
Time: 06:57:19
(UTC+00:00)

Envisat - Pass Details

Date: 03 December 2022
Orbit: 763 x 765 km, 98.2° (Epoch: 04 February)

Event Time Altitude Azimuth Distance (km) Brightness Sun altitude
Rises 04:18:51 0° 10° (N) 3,246 6.3 -25.8°
Reaches altitude 10° 04:21:12 10° 6° (N) 2,315 5.5 -25.4°
Enters shadow 04:23:47 29° 353° (N) 1,380 4.2 -25.0°
